COSMOS 1275 DEB, 12950

Orbit data source: Space-Track

COSMOS 1275 DEB, 12950 is space debris in LEO originally from a launch on Thu, 04 Jun 1981 UTC launched from the Plesetsk Missile And Space Complex (PKMTR). Debris objects in space refer to the collection of defunct objects orbiting the Earth. Examples of debris include non-operational satellites, rocket bodies, and fragments generated from explosions, collisions, or faulty payload assembly.

Loading next visibility...
Identifier
12950, 1981-053EE
Orbit
LEO
Country
Flag of CISCIS
Related business
Manufacturer
Unknown
Mission
Spacecraft
Bus & Motor
Unknown
Mass
Unknown
Launch date (UTC)
1981-06-04 (45 years ago)
Launch vehicle
Unknown
Launch site
Plesetsk Missile And Space Complex (PKMTR)
Object type
Payload
Rocket body
Debris
Shape & HBR
Unknown shape, 0.1 m
Radar Cross Section
Small (<0.1 m²)

Expand to show TLE details & history
Last TLE update: 2 days ago

TLE from 2 days ago
0 COSMOS 1275 DEB
1 12950U 81053EE  26070.96056427  .00001037  00000-0  50042-3 0  9993
2 12950  83.0128 155.9504 0051200 221.5124 317.6997 14.17110044286950
Epoch: 2026-03-11T23:03Z
TLE epoch observation values (Epoch: 2026-03-11T23:03:12.752Z)
Latitude
1.06516°
Longitude
-179.5999°
Altitude
810.736 km
Speed
7.462 km/s
True Right ascension
22h 23m 16s
True Declination
1° 03' 32"
Sunlit
Object was in daylight at epoch
Visualization orbit readout
Latitude
Unknown
Longitude
Unknown
Altitude
Unknown
Speed
Unknown
Apparent Right ascension
Unknown
Apparent Declination
Unknown
Sunlit
N/A
Visualization observer readout
Local Sidereal Time
15:54:43
Azimuth
Unknown
Elevation
Unknown
Doppler factor
Unknown
Orbital elements
Apogee altitude
869.148 km
Perigee altitude
795.314 km
Semi-major axis
7,210.368 km
Eccentricity
0.00512
Inclination
83.0128°
RAAN
155.9504°
Arg. of periapsis
221.5124°
True anomaly
317.30296°
Mean anomaly
317.6997°
Eccentric anomaly
317.50152°
Mean motion
3.54492 °/min
Orbital period
101.55 mins
BSTAR
0.00050042
Loading maneuver chart data...
Computing Atmospheric mass density...
Loading historical data...
Loading historical data...
Loading historical data...
Loading historical data...
Loading historical data...
Loading historical data...
Loading historical data...

Documentation

Showing up to 5 results
|